STARLINK-1624, 46130

Orbit data source: Space-Track

STARLINK-1624, 46130 is a payload satellite owned by SpaceX/Seattle (US) in LEO that was launched on Tue, 18 Aug 2020 UTC via an FALCON 9 launch vehicle from the Air Force Eastern Test Range (AFETR). Payload-class satellites include a variety of spacecraft equipped with specific instruments for various scientific and technological missions. These include communications satellites like Starlink; space stations such as the ISS; scientific satellites like the Hubble; Earth observation satellites from companies like Planet Labs, Umbra, and HawkEye 360; GPS; miniature CubeSats for education and research; and military/defense satellites.

Loading next visibility...
Identifier
46130, 2020-057P
Orbit
LEO
Country
Flag of USUS
Related business
Manufacturer
SpaceX/Seattle
Mission
Operational Commercial Communications
Bus & Motor
STARLINK, Unknown motor
Mass
260 kg wet, ~248 kg dry
Launch date (UTC)
2020-08-18 (5 years ago)
Launch vehicle
FALCON 9
Launch site
Air Force Eastern Test Range (AFETR)
Object type
Payload
Rocket body
Debris
Shape & HBR
Box + 1 Pan, 10.1 m
Radar Cross Section
13.562 m², Large (>1 m²)

Expand to show TLE details & history
Last TLE update: 12 hours ago

TLE from 12 hours ago
0 STARLINK-1624
1 46130U 20057P   25289.25002315  .01431966  00000-0  69876-1 0  9999
2 46130  53.0540 204.9102 0001853  69.5625   2.6256 15.14735587  5744
Epoch: 2025-10-16T06:00Z
TLE epoch observation values (Epoch: 2025-10-16T06:00:02.000Z)
Latitude
49.69146°
Longitude
151.73505°
Altitude
526.25 km
Speed
7.607 km/s
True Right ascension
17h 47m 01s
True Declination
49° 30' 58"
Sunlit
Object was in daylight at epoch
Visualization orbit readout
Latitude
Unknown
Longitude
Unknown
Altitude
Unknown
Speed
Unknown
Apparent Right ascension
Unknown
Apparent Declination
Unknown
Sunlit
N/A
Visualization observer readout
Local Sidereal Time
12:20:12
Azimuth
Unknown
Elevation
Unknown
Doppler factor
Unknown
Orbital elements
Apogee altitude
523.332 km
Perigee altitude
520.775 km
Semi-major axis
6,900.19 km
Eccentricity
0.00019
Inclination
53.054°
RAAN
204.9102°
Arg. of periapsis
69.5625°
True anomaly
2.62657°
Mean anomaly
2.6256°
Eccentric anomaly
2.62609°
Mean motion
3.78662 °/min
Orbital period
95.07 mins
BSTAR
0.069876
Loading maneuver chart data...
Computing Atmospheric mass density...

Documentation

Showing up to 5 results
|